User: anonymous   Login
Location: Fishcreek Rd Observing Site
(41.1865°N, 81.4271°W)
Time: 12:00:30
(UTC-04:00)
Language:

Iridium 45 - Orbit

View from above orbital plane
View from above orbital plane
View from above satellite
View from above satellite

Ground track
Ground track

The orbit data is extracted from the following two-line orbital elements,

1 25104U 97082A   14298.11657649  .00000371  00000-0  12580-3 0  9496
2 25104 087.0235 313.9456 0002094 116.9563 243.1847 14.34215797881904
Epoch (UTC): 25 October 2014 02:47:52
Eccentricity: 0.0002094
inclination: 87.0235°
perigee height: 776 km
apogee height: 779 km
right ascension of ascending node: 313.9456°
argument of perigee: 116.9563°
revolutions per day: 14.34215797
mean anomaly at epoch: 243.1847°
orbit number at epoch: 88190

The dashed part of the orbit path shows where the satellite is in the earth's shadow,  

DLR